Cut Bank, MT

12:26 PM MDT on April 25, 2018 (GMT -0600)
Cut Bank Municipal

Weather History for KCTB - May, 2014

Change the Weather History Date:

Thursday, May 29, 2014

  Actual Average Record
Temperature  
Mean Temperature 51 °F 54 °F  
Max Temperature 61 °F 66 °F 90 °F (1936)
Min Temperature 41 °F 41 °F 23 °F (1951)
Degree Days  
Heating Degree Days 14 11  
Month to date heating degree days 438 447  
Since 1 July heating degree days 8573 8267  
Cooling Degree Days 0 0  
Month to date cooling degree days 0 0  
Year to date cooling degree days 0 0  
Growing Degree Days 1 (Base 50)    
Moisture  
Dew Point 32 °F    
Average Humidity 52    
Maximum Humidity 71    
Minimum Humidity 32    
Precipitation  
Precipitation 0.00 in 0.09 in 0.80 in (1953)
Month to date precipitation 0.62 1.77  
Year to date precipitation 4.12 3.46  
Snow  
Snow 0.00 in - - ()
Snow Depth 0.00 in    
Sea Level Pressure  
Sea Level Pressure 29.99 in    
Wind  
Wind Speed 26 mph (WSW)    
Max Wind Speed 48 mph    
Max Gust Speed 58 mph    
Visibility 10 miles    
Events      
T = Trace of Precipitation, MM = Missing Value Source: NWS Daily Summary

Daily Weather History Graph

Daily Weather History Graph

Search for Another Location

Airport or City:

Astronomy

May. 29, 2014 Rise Set
Actual Time 5:33 AM MDT 9:20 PM MDT
Civil Twilight 4:53 AM MDT 10:01 PM MDT
Nautical Twilight 3:58 AM MDT 10:56 PM MDT
Astronomical Twilight 2:37 AM MDT 12:18 AM MDT
Moon 6:35 AM MDT (5/29) 10:09 PM MDT (5/29)
Length of Visible Light 17h 07m
Length of Day
15h 47m
New Moon, 1% of the Moon is Illuminated
May 29
New Moon
Jun 5
First Quarter
Jun 12
Full
Jun 19
Last Quarter
Jun 27
New

Hourly Weather History & Observations

Time (MDT) Temp. Windchill Dew Point Humidity Pressure Visibility Wind Dir Wind Speed Gust Speed Precip Events Conditions
12:56 AM 50.0 °F - 41.0 °F 71% 29.90 in 10.0 mi WNW 13.8 mph - 0.00 in   Overcast
1:56 AM 50.0 °F - 36.0 °F 59% 29.92 in 10.0 mi West 23.0 mph 31.1 mph N/A   Overcast
2:56 AM 46.4 °F 37.9 °F 33.8 °F 62% 29.96 in 10.0 mi WSW 25.3 mph 33.4 mph N/A   Overcast
3:56 AM 45.0 °F 36.9 °F 33.1 °F 63% 29.96 in 10.0 mi WSW 20.7 mph 26.5 mph N/A   Mostly Cloudy
4:56 AM 43.0 °F 34.5 °F 32.0 °F 65% 29.97 in 10.0 mi WSW 19.6 mph - N/A   Partly Cloudy
5:56 AM 42.8 °F 36.6 °F 30.2 °F 61% 29.99 in 10.0 mi West 11.5 mph - N/A   Clear
6:56 AM 46.0 °F 38.8 °F 30.0 °F 54% 29.96 in 10.0 mi WSW 18.4 mph - N/A   Clear
7:56 AM 48.9 °F - 28.9 °F 46% 29.94 in 10.0 mi SW 25.3 mph 39.1 mph N/A   Clear
8:56 AM 51.1 °F - 28.9 °F 43% 29.91 in 10.0 mi WSW 44.9 mph 55.2 mph N/A   Clear
9:56 AM 53.1 °F - 30.9 °F 43% 29.93 in 10.0 mi West 40.3 mph 55.2 mph N/A   Clear
10:56 AM 55.0 °F - 30.9 °F 40% 29.91 in 10.0 mi WSW 43.7 mph 55.2 mph N/A   Clear
11:56 AM 57.2 °F - 30.2 °F 36% 29.96 in 10.0 mi WSW 36.8 mph 50.6 mph N/A   Clear
12:56 PM 59.0 °F - 30.0 °F 33% 29.96 in 10.0 mi WSW 34.5 mph 42.6 mph N/A   Clear
1:56 PM 60.1 °F - 30.9 °F 33% 29.98 in 10.0 mi WSW 25.3 mph 42.6 mph N/A   Clear
2:56 PM 60.1 °F - 30.9 °F 33% 30.01 in 10.0 mi WSW 28.8 mph 39.1 mph N/A   Clear
3:56 PM 60.8 °F - 32.0 °F 34% 30.03 in 10.0 mi WSW 27.6 mph 38.0 mph N/A   Clear
4:56 PM 60.1 °F - 30.9 °F 33% 30.04 in 10.0 mi WSW 24.2 mph 33.4 mph N/A   Clear
5:56 PM 59.0 °F - 30.9 °F 35% 30.05 in 10.0 mi WSW 26.5 mph 34.5 mph N/A   Scattered Clouds
6:56 PM 57.9 °F - 30.9 °F 36% 30.04 in 10.0 mi WSW 29.9 mph 35.7 mph N/A   Clear
7:56 PM 55.0 °F - 30.9 °F 40% 30.05 in 10.0 mi WSW 21.9 mph 31.1 mph N/A   Clear
8:56 PM 52.0 °F - 30.9 °F 45% 30.05 in 10.0 mi WSW 26.5 mph 35.7 mph N/A   Clear
9:56 PM 51.1 °F - 32.0 °F 48% 30.07 in 10.0 mi WSW 26.5 mph 32.2 mph N/A   Clear
10:56 PM 50.0 °F - 32.0 °F 50% 30.07 in 10.0 mi WSW 21.9 mph - N/A   Clear
11:56 PM 48.9 °F - 32.0 °F 52% 30.09 in 10.0 mi West 15.0 mph - N/A   Clear